OBJECT AN, 61771

Orbit data source: Space-Track

You're viewing an Uncataloged Satellite

Recently launched and/or uncataloged satellites may have evolving metadata. Metadata may include but not limited to: Owner, Maufacturer, Bus, Motor, and Mission.

OBJECT AN, 61771 is a satellite in SSO that was launched on Mon, 04 Nov 2024 UTC via a SOYUZ-2-1B launch vehicle from the Vostochny Cosmodrome (VOSTO). Unknown objects in Earth's orbit typically refer to objects detected orbiting the Earth but have not yet been identified or cataloged. These objects could be anything from previously untracked satellites, spent rocket stages, debris from satellite collisions, or even natural meteoroids temporarily captured by Earth's gravity.

Loading next visibility...
Identifier
61771, 2024-199AN
Orbit
SSO
Country
Flag of TBDTBD
Related business
Manufacturer
Sputniks
Mission
Operational Commercial Communications
Bus & Motor
CUBESAT 3U?, Unknown motor
Mass
3 kg wet, 3 kg dry
Launch date (UTC)
2024-11-04 (10 months ago)
Launch vehicle
SOYUZ-2-1B
Launch site
Vostochny Cosmodrome (VOSTO)
Object type
Unknown
Shape & HBR
Box, 0.1 m
Radar Cross Section
0.035 m², Small (<0.1 m²)

Expand to show TLE details & history
Last TLE update: 15 hours ago

TLE from 15 hours ago
0 OBJECT AN
1 61771U 24199AN  25260.20776393  .00016887  00000-0  46765-3 0  9990
2 61771  97.3350 128.3285 0011105 193.7854 166.3089 15.36985679 92222
Epoch: 2025-09-17T04:59Z
TLE epoch observation values (Epoch: 2025-09-17T04:59:10.803Z)
Latitude
-0.00002°
Longitude
57.14647°
Altitude
465.519 km
Speed
7.63 km/s
True Right ascension
08h 33m 18s
True Declination
0° 00' 00"
Sunlit
Object was in daylight at epoch
Visualization orbit readout
Latitude
Unknown
Longitude
Unknown
Altitude
Unknown
Speed
Unknown
Apparent Right ascension
Unknown
Apparent Declination
Unknown
Sunlit
N/A
Visualization observer readout
Local Sidereal Time
13:09:21
Azimuth
Unknown
Elevation
Unknown
Doppler factor
Unknown
Orbital elements
Apogee altitude
459.554 km
Perigee altitude
444.384 km
Semi-major axis
6,830.106 km
Eccentricity
0.00111
Inclination
97.335°
RAAN
128.3285°
Arg. of periapsis
193.7854°
True anomaly
166.33898°
Mean anomaly
166.3089°
Eccentric anomaly
166.32394°
Mean motion
3.84505 °/min
Orbital period
93.63 mins
BSTAR
0.00046765
Loading maneuver chart data...
Computing Atmospheric mass density...
Loading historical data...
Loading historical data...
Loading historical data...
Loading historical data...
Loading historical data...
Loading historical data...
Loading historical data...

Documentation

Showing up to 5 results
|